[[{"header":{"parameterUnit":"m.s-1","parameterCategory":1,"la1":30.2991,"la2":30.254,"lo1":-89.0895,"lo2":-89.0444,"dy":0.0017,"dx":0.0017,"nx":28,"ny":28,"refTime":"2024-06-16T21:00:00:Z","depth":0,"parameterNumber":2,"parameterNumberName":"U-component_of_WINDS"},"data":[0,0,0,0,0,0,0,0,0,0,0,0,0,0,0,0,0,0,0,0,0,0,0,0,0,0,0,0,0,0,0,0,0,0,0,0,0,0,0,0,0,0,0,0,0,0,0,0,0,0,0,0,0,0,0,0,0,0,-9.7115,-9.7115,0,-9.718,-9.7181,-9.7182,-9.6988,-9.6982,-9.6976,-9.697,-9.7039,-9.7046,-9.7054,0,0,0,0,0,0,0,0,0,0,0,0,0,-9.6823,-9.6829,-9.7115,-9.7115,-9.7116,-9.718,-9.7181,-9.7182,-9.6989,-9.6982,-9.6975,-9.6968,-9.7037,-9.7045,-9.7054,0,0,0,0,0,0,0,0,0,0,0,0,0,-9.6925,-9.6831,-9.7114,-9.7028,-9.702,-9.718,-9.7181,-9.7182,-9.6991,-9.6982,-9.6973,-9.6964,-9.7034,-9.7045,-9.7056,-9.7303,0,0,-9.7089,-9.7094,0,0,0,0,0,0,0,0,-9.692,-9.6936,-9.704,-9.7034,-9.7026,-9.7067,-9.7103,-9.7223,-9.6993,-9.7002,-9.697,-9.696,-9.7056,-9.7064,-9.7096,-9.7306,-9.7309,-9.709,-9.7097,-9.7102,-9.7105,0,0,0,0,0,0,0,-9.6913,-9.6932,-9.714,-9.7041,-9.7033,-9.6986,-9.699,-9.7125,-9.7078,-9.7,-9.6987,-9.6997,-9.705,-9.7086,-9.7097,-9.731,-9.709,-9.71,-9.7107,-9.7111,-9.7724,-9.7734,0,0,0,0,0,0,-9.6917,-9.6928,-9.7138,-9.7142,-9.695,-9.6998,-9.7003,-9.7063,-9.7076,-9.707,-9.7005,-9.6988,-9.7072,-9.7084,-9.7098,-9.7387,-9.7102,-9.7112,-9.7118,-9.7715,-9.7727,-9.7737,0,0,0,0,0,0,-9.6912,-9.6938,-9.7136,-9.7031,-9.7053,-9.7013,-9.7081,-9.7069,-9.7104,-9.7079,-9.707,-9.705,-9.7065,-9.7083,-9.7253,-9.7387,-9.7117,-9.7127,-9.7703,-9.7718,-9.7732,-9.7968,0,0,0,0,0,0,-9.6904,-9.6937,-9.703,-9.7035,-9.7059,-9.729,-9.7089,-9.7077,-9.7124,-9.7102,-9.7119,-9.7113,-9.7059,-9.7237,-9.7264,-9.7397,-9.7136,-9.7691,-9.771,-9.7727,-9.7948,-9.7989,-9.8024,0,0,0,0,0,-9.6894,-9.7094,-9.7036,-9.7062,-9.7175,-9.7298,-9.7312,-9.7245,-9.7135,-9.7229,-9.7213,-9.7113,-9.7369,-9.7257,-9.7285,-9.7423,-9.7682,-9.7705,-9.7726,-9.7931,-9.7981,-9.8023,0,0,0,0,0,0,-9.7106,-9.7093,-9.7028,-9.7236,-9.7269,-9.7265,-9.738,-9.73,-9.7366,-9.7343,-9.7258,-9.7264,-9.745,-9.7453,-9.7329,-9.7663,-9.7507,-9.7535,-9.7653,-9.77,-9.7737,-9.7731,-9.7145,0,0,0,0,0,-9.7177,-9.7278,-9.7261,-9.7446,-9.7466,-9.7421,-9.7472,-9.7418,-9.745,-9.7463,-9.7459,-9.7494,-9.7581,-9.7641,-9.7721,-9.7948,-9.7949,-9.8058,-9.8096,-9.8127,-9.8152,-9.8271,-9.8319,-9.7808,-9.7808,-9.7808,0,0,-9.7324,-9.733,-9.7398,-9.7489,-9.7508,-9.7614,-9.7434,-9.7554,-9.7632,-9.7481,-9.7641,-9.764,-9.7673,-9.7873,-9.7961,-9.7882,-9.8293,-9.8154,-9.818,-9.8187,-9.8299,-9.8347,-9.839,-9.7823,-9.782,-9.7818,0,0,-9.7646,-9.7662,-9.7816,-9.784,-9.7872,-9.7841,-9.7879,-9.7887,-9.788,-9.8039,-9.7928,-9.802,-9.8174,-9.8201,-9.8236,-9.8571,-9.8481,-9.86,-9.8796,-9.8914,-9.8954,-9.8989,-9.9107,-9.9151,-9.8625,-9.8625,-9.8626,0,-9.7825,-9.798,-9.7906,-9.8034,-9.8076,-9.7945,-9.8101,-9.8128,-9.8185,-9.8218,-9.8129,-9.8319,-9.8332,-9.8536,-9.8618,-9.8651,-9.8691,-9.8596,-9.8954,-9.8989,-9.9021,-9.9132,-9.9177,-9.8639,-9.8638,-9.8636,-9.8635,0,-9.8198,-9.8308,-9.8429,-9.8487,-9.8543,-9.8685,-9.8633,-9.8699,-9.8641,-9.862,-9.8784,-9.8796,-9.8875,-9.892,-9.8865,-9.9117,-9.9067,-9.8969,-9.8809,-9.9085,-9.9188,-9.923,-9.866,-9.8654,-9.865,-9.8647,0,0,-9.8653,-9.8669,-9.8715,-9.8739,-9.8765,-9.8849,-9.8985,-9.9062,-9.912,-9.9165,-9.9276,-9.941,-9.9318,-9.9358,-9.9305,-9.9409,-9.9672,-9.9297,-9.9296,-9.9365,-9.9949,-10.0022,-10.0073,-9.9614,-9.9622,-9.9628,-9.9946,0,-9.8969,-9.9201,-9.9139,-9.937,-9.947,-9.9348,-9.9466,-9.9496,-9.948,-9.9563,-9.9545,-9.9641,-9.9514,-9.9536,-9.9634,-9.9619,-9.9788,-9.9596,-9.9716,-9.9721,-9.9709,-10.0127,-10.0204,-10.0504,-9.9986,-9.9993,-9.9998,0,-9.9368,-9.9427,-9.9669,-9.9678,-9.9718,-9.9825,-9.9891,-9.9972,-10.0003,-9.9984,-10.003,-9.9956,-10.009,-9.9933,-10.0117,-9.9987,-10.0033,-10.0034,-10.0044,-10.0051,-9.9875,-10.0143,-10.0598,-10.0642,-10.0061,-10.0056,-10.0052,0,-9.9673,-9.9814,-9.9976,-10.0001,-10.0017,-10.0096,-10.0106,-10.0128,-10.0179,-10.0237,-10.0269,-10.0343,-10.0383,-10.0442,-10.0391,-10.0281,-10.0583,-10.0421,-10.057,-10.0572,-10.0637,-10.0633,-10.1104,-10.0672,-10.0671,-10.067,-10.0669,0,-10.0031,-10.0183,-10.0114,-10.0213,-10.038,-10.0308,-10.0476,-10.0472,-10.0494,-10.0591,-10.0491,-10.0584,-10.0511,-10.0599,-10.056,-10.0717,-10.0737,-10.0725,-10.0713,-10.0733,-10.0735,-10.076,-10.0737,-10.0682,-10.0679,-10.0677,-10.0675,0,-10.04,-10.0359,-10.0528,-10.053,-10.0534,-10.0657,-10.0658,-10.075,-10.0728,-10.0852,-10.0877,-10.0843,-10.094,-10.0895,-10.0998,-10.0972,-10.1174,-10.1135,-10.1164,-10.1152,-10.1304,-10.129,-10.1805,-10.1868,-10.1398,-10.1403,-10.1407,0,-10.063,-10.0744,-10.0758,-10.0815,-10.0832,-10.0927,-10.0978,-10.0912,-10.0969,-10.1014,-10.1101,-10.119,-10.1257,-10.142,-10.1404,-10.1482,-10.1443,-10.1618,-10.1454,-10.1471,-10.1443,-10.1436,-10.1447,-10.165,-10.1656,-10.166,-10.1664,0,-10.1041,-10.1016,-10.1093,-10.1164,-10.1227,-10.128,-10.1324,-10.1378,-10.1313,-10.1383,-10.1481,-10.1534,-10.1639,-10.1728,-10.1797,-10.1808,-10.1726,-10.1716,-10.1755,-10.1775,-10.1786,-10.1781,-10.1251,-10.1704,-10.17,-10.1697,-10.1695,-10.1693,-10.1346,-10.1441,-10.1466,-10.1555,-10.1582,-10.1625,-10.1712,-10.1701,-10.1781,-10.1861,-10.1818,-10.1933,-10.1961,-10.2045,-10.2067,-10.2157,-10.2087,-10.2143,-10.2157,-10.2172,-10.2191,-10.1775,-10.2169,-10.2168,-10.2167,-10.2166,-10.2165,0,-10.1751,-10.1761,-10.1844,-10.1908,-10.1979,-10.1896,-10.1941,-10.2005,-10.2107,-10.2141,-10.2209,-10.2323,-10.241,-10.2401,-10.2481,-10.2554,-10.2518,-10.2577,-10.257,-10.2573,-10.2249,-10.2207,-10.2604,-10.2604,-10.2604,-10.2604,-10.2604,-10.2604,-10.1969,-10.2126,-10.2104,-10.2273,-10.2281,-10.2393,-10.2425,-10.2465,-10.2491,-10.2622,-10.2693,-10.2687,-10.2704,-10.2785,-10.2861,-10.2856,-10.2889,-10.2962,-10.2943,-10.264,-10.2596,-10.2555,-10.2514,-10.297,-10.297,-10.3259,-10.3262,-10.3264]},{"header":{"parameterUnit":"m.s-1","parameterCategory":1,"la1":30.2991,"la2":30.254,"lo1":-89.0895,"lo2":-89.0444,"dy":0.0017,"dx":0.0017,"nx":28,"ny":28,"refTime":"2024-06-16T21:00:00:Z","depth":0,"parameterNumber":3,"parameterNumberName":"V-component_of_WINDS"},"data":[0,0,0,0,0,0,0,0,0,0,0,0,0,0,0,0,0,0,0,0,0,0,0,0,0,0,0,0,0,0,0,0,0,0,0,0,0,0,0,0,0,0,0,0,0,0,0,0,0,0,0,0,0,0,0,0,0,0,1.3945,1.3947,0,1.4115,1.4117,1.4119,1.4171,1.417,1.417,1.4169,1.4343,1.4348,1.4353,0,0,0,0,0,0,0,0,0,0,0,0,0,1.3665,1.367,1.3945,1.3947,1.3949,1.4115,1.4117,1.412,1.4171,1.417,1.4169,1.4168,1.4341,1.4347,1.4354,0,0,0,0,0,0,0,0,0,0,0,0,0,1.3806,1.3671,1.3944,1.3995,1.4001,1.4115,1.4117,1.412,1.4172,1.417,1.4169,1.4168,1.4339,1.4347,1.4355,1.443,0,0,1.438,1.4383,0,0,0,0,0,0,0,0,1.3798,1.3816,1.3985,1.3992,1.3999,1.4121,1.4083,1.4224,1.4172,1.4107,1.4169,1.4167,1.427,1.4284,1.4318,1.4438,1.4446,1.438,1.4385,1.4389,1.4391,0,0,0,0,0,0,0,1.3788,1.3809,1.4012,1.3988,1.3996,1.4009,1.4028,1.411,1.4193,1.4112,1.4117,1.4136,1.4273,1.431,1.4323,1.4448,1.438,1.4387,1.4392,1.4396,1.4641,1.4642,0,0,0,0,0,0,1.377,1.3801,1.4007,1.4017,1.3893,1.4015,1.4036,1.4083,1.4193,1.4208,1.4137,1.4138,1.4297,1.4313,1.4329,1.4426,1.4389,1.4396,1.4401,1.4639,1.4641,1.4643,0,0,0,0,0,0,1.3763,1.3788,1.4,1.391,1.3938,1.4022,1.4073,1.4087,1.4124,1.4211,1.4226,1.4159,1.4297,1.4318,1.4405,1.4433,1.44,1.4407,1.4637,1.464,1.4642,1.462,0,0,0,0,0,0,1.3755,1.3785,1.3814,1.3911,1.3943,1.4073,1.4075,1.4091,1.4138,1.4141,1.4236,1.4251,1.4297,1.4393,1.4413,1.4443,1.4414,1.4635,1.4638,1.4641,1.4618,1.4621,1.4623,0,0,0,0,0,1.3745,1.3801,1.3815,1.384,1.3981,1.4074,1.4093,1.4145,1.414,1.417,1.4227,1.4248,1.4426,1.4401,1.4425,1.4458,1.4634,1.4638,1.4641,1.4617,1.462,1.4623,0,0,0,0,0,0,1.3705,1.3814,1.3832,1.392,1.3988,1.4083,1.4123,1.4147,1.4217,1.4217,1.4279,1.43,1.4383,1.4429,1.44,1.4537,1.4531,1.4539,1.4504,1.4508,1.4511,1.4498,1.4421,0,0,0,0,0,1.3707,1.3773,1.3865,1.3934,1.3967,1.4039,1.4081,1.4116,1.4189,1.4217,1.428,1.4349,1.4421,1.4467,1.4538,1.4625,1.4647,1.4659,1.4662,1.4663,1.467,1.4721,1.4728,1.4655,1.4655,1.4655,0,0,1.371,1.3778,1.3816,1.3928,1.3984,1.4052,1.4063,1.4134,1.4185,1.4228,1.4315,1.4363,1.4445,1.4533,1.4574,1.4574,1.4695,1.4668,1.4669,1.4675,1.4726,1.4732,1.4738,1.4658,1.4657,1.4657,0,0,1.3752,1.381,1.3874,1.3931,1.4016,1.4064,1.4079,1.4172,1.4206,1.4294,1.4328,1.439,1.4512,1.4569,1.4614,1.4679,1.4702,1.47,1.4714,1.4762,1.4768,1.4774,1.4798,1.4806,1.4707,1.4707,1.4707,0,1.3746,1.385,1.3905,1.3975,1.4023,1.4066,1.4132,1.4184,1.4288,1.4321,1.4318,1.4474,1.4531,1.4634,1.465,1.4685,1.4705,1.469,1.4763,1.4769,1.4775,1.4799,1.4808,1.4706,1.4706,1.4706,1.4706,0,1.3839,1.391,1.3952,1.4052,1.4106,1.4173,1.4239,1.4286,1.4316,1.4364,1.4454,1.4525,1.4612,1.4639,1.4668,1.4746,1.4743,1.4751,1.4746,1.478,1.4804,1.4813,1.4705,1.4705,1.4706,1.4706,0,0,1.386,1.3991,1.4005,1.4052,1.415,1.4206,1.4276,1.4361,1.4401,1.4471,1.4532,1.4635,1.4644,1.4695,1.4732,1.4774,1.4823,1.4777,1.478,1.4784,1.4914,1.4908,1.4918,1.4838,1.484,1.4841,1.4907,0,1.3916,1.4043,1.4095,1.4198,1.4265,1.4307,1.4368,1.4435,1.4482,1.4546,1.4598,1.467,1.4675,1.4707,1.4751,1.4807,1.485,1.4803,1.4896,1.4899,1.4875,1.493,1.4924,1.4983,1.4917,1.4918,1.492,0,1.3997,1.4069,1.4179,1.427,1.43,1.4354,1.4437,1.4497,1.4574,1.4606,1.4663,1.4698,1.4773,1.4763,1.4868,1.4836,1.4877,1.491,1.4914,1.4925,1.4912,1.4944,1.5003,1.5012,1.4934,1.4933,1.4932,0,1.4003,1.4127,1.421,1.4248,1.4356,1.4393,1.444,1.4515,1.4564,1.4636,1.4668,1.4748,1.4792,1.4853,1.4909,1.4896,1.501,1.5003,1.5039,1.5037,1.5061,1.5059,1.5129,1.5086,1.5086,1.5085,1.5085,0,1.4061,1.4126,1.4214,1.4265,1.434,1.4399,1.4472,1.4522,1.4589,1.465,1.4691,1.4748,1.4817,1.4883,1.4927,1.5008,1.5027,1.5055,1.5066,1.5052,1.5049,1.5081,1.5079,1.5088,1.5087,1.5087,1.5086,0,1.4081,1.4142,1.4235,1.4329,1.4354,1.4406,1.4487,1.4538,1.4587,1.4664,1.4686,1.4763,1.4843,1.4904,1.5007,1.5037,1.5123,1.5135,1.5098,1.5104,1.5136,1.5132,1.5229,1.5245,1.519,1.519,1.5191,0,1.4113,1.4165,1.4266,1.431,1.4356,1.4427,1.4477,1.4537,1.4587,1.4679,1.4719,1.4802,1.4871,1.4997,1.5062,1.5141,1.5156,1.5184,1.5168,1.5153,1.5158,1.5154,1.5161,1.5186,1.5187,1.5187,1.5187,0,1.4166,1.4194,1.4264,1.4345,1.4404,1.4471,1.4538,1.4572,1.4645,1.4699,1.4781,1.4835,1.4941,1.5023,1.5109,1.5158,1.5185,1.5192,1.5204,1.5191,1.5168,1.5182,1.5104,1.5189,1.5189,1.5189,1.5189,1.5189,1.4195,1.4243,1.4322,1.4399,1.4456,1.4519,1.4572,1.4628,1.4697,1.4789,1.482,1.4905,1.4982,1.5101,1.515,1.5217,1.5218,1.5236,1.5241,1.5245,1.5244,1.5156,1.5233,1.5233,1.5233,1.5233,1.5233,0,1.425,1.4303,1.4373,1.4467,1.4528,1.4548,1.4625,1.4674,1.4749,1.4818,1.4886,1.4981,1.5061,1.5132,1.5215,1.5256,1.5271,1.5276,1.5274,1.5285,1.5238,1.5219,1.5263,1.5263,1.5263,1.5263,1.5263,1.5263,1.4287,1.437,1.4408,1.452,1.4573,1.4657,1.4699,1.4757,1.4813,1.4917,1.4984,1.503,1.5101,1.519,1.5264,1.5283,1.5312,1.5315,1.5337,1.5292,1.5288,1.5285,1.5267,1.532,1.532,1.5379,1.5379,1.538]}]]